Notices

What's New in latest Release from April 7th, 2021:

- Updated Glossary, including Speed of Maximum Gust, and Total Hourly Precipitation

- Updated national and regional climate services offices contacts and prices information

- Addition of station inventory lists for 1981-2010, 1971-2000, and 1961-1990 Normals.

If you haven't already, please take our survey and provide feedback about our website: https://eccc.sondage-survey.ca/f/LanguageSelection.aspx?s=442ca660-fcf1-47c0-95a9-59707d6fd709

Hourly Data Report for July 22, 2019

TORONTO CITY
ONTARIO
Current Station Operator: ECCC - MSC

43°40'00.000" N
79°24'00.000" W
112.50 m
6158355
71508
XTO

Download Data

Hourly Data (July 2019)
Hourly Data Report for July 22, 2019
TIME
LST
Temp Definition
°C
Dew Point Definition
°C
Rel Hum Definition
%
Precip. Amount Definition
mm

Wind Dir Definition
10's deg

Wind Spd Definition
km/h
Visibility Definition
km
Stn Press Definition
kPa
Hmdx Definition


Wind Chill Definition


Weather Definition


00:00 21.8 11.0 50 0.0       99.92     LegendNANA
01:00 21.7 11.4 52 0.0       99.92     LegendNANA
02:00 20.9 12.0 57 0.0       99.91     LegendNANA
03:00 20.6 11.4 56 0.0       99.89     LegendNANA
04:00 20.2 12.1 60 0.0       99.83     LegendNANA
05:00 20.2 12.6 61 0.0       99.84     LegendNANA
06:00 19.5 13.9 70 0.0       99.85     LegendNANA
07:00 20.0 14.4 70 0.0       99.85     LegendNANA
08:00 20.9 14.8 68 0.0       99.85 25   LegendNANA
09:00 21.5 14.3 63 0.0       99.86 25   LegendNANA
10:00 23.0 14.1 57 0.0       99.85 26   LegendNANA
11:00 22.3 14.4 61 0.0       99.83 26   LegendNANA
12:00 22.2 14.1 60 0.0       99.83 26   LegendNANA
13:00 21.8 13.8 60 0.0       99.81 25   LegendNANA
14:00 23.4 14.4 57 0.0       99.79 27   LegendNANA
15:00 22.2 13.7 59 0.0       99.75 25   LegendNANA
16:00 21.2 14.3 65 0.0       99.74 25   LegendNANA
17:00 21.6 13.8 61 0.0       99.75 25   LegendNANA
18:00 21.8 12.6 56 0.0       99.76     LegendNANA
19:00 21.3 13.8 62 0.0       99.80 25   LegendNANA
20:00 19.6 16.3 81 0.5       99.86     LegendNANA
21:00 19.6 16.8 84 0.0       99.91     LegendNANA
22:00 19.2 15.7 80 0.0       99.93     LegendNANA
23:00 19.3 15.4 78 0.2       99.93     LegendNANA

Notes on Data Quality.

Legend

  • E = Estimated
  • M = Missing
  • NA = Not Available*
  • [empty] = Indicates an unobserved value
Date modified: